FENGYUN 1C DEB

Satellite information

Favourite Embed

Satellite Type and Status

DEBRISIN ORBIT

Key statistics

Satellite FENGYUN 1C DEB at a glance.

Uptime

9555

Days in orbit

Revolutions

≈ 14.4

Per day

Orbit

SSO

Sun Synchronous Orbit

Inclination

99.4

Latest

Satellite identification and parameters

Extended collection of information and parameters for FENGYUN 1C DEB.

Object identification

Identified? True

Debris? True

Object name: FENGYUN 1C DEB

International designator: 1999-025DFZ

Object number (NORAD): 33688

Object ID (CCSDS): 33688

Country: PEOPLES REPUBLIC OF CHINA (PRC)

Current information (Y/N): Y

RCS size: SMALL

Orbital parameters

Period: 99.848 minutes

Inclination: 99.3516 deg

SMA: 7129.405 km

Apoapsis: 790.147 km

Periapsis: 712.392 km

RAAN: 271.9226 deg

Eccentricy: 0.0054531

Argument of periapsis: 17.981 deg

Mean anomaly: 342.329 deg

Mean motion: 14.42191252 rev/day

Mean motion (dot): 0.0000529 rev/day2

B* drag term: 0.0015924 1/REarth

Two-line elements (TLE)

Creation date: July 5, 2025, 5:45 p.m.

Reference frame: TEME

Reference center: EARTH

Epoch: July 5, 2025, 4:34 a.m. UTC

TLE line 0: 0 FENGYUN 1C DEB

TLE line 1: 1 33688U 99025DFZ 25186.19035404 .00005290 00000-0 15924-2 0 9990

TLE line 2: 2 33688 99.3516 271.9226 0054531 17.9810 342.3290 14.42191252891659

Live tracking on map

Real-time ground track for satellite FENGYUN 1C DEB.

In-orbit conjunctions

A list of the most updated potential collisions computed for object FENGYUN 1C DEB.

Target Orbit TCA Probability of collision Miss distance Type
FREGAT R/B LEO 2025-04-09 18:10:40 0.0001371871 230.0 (m) ROCKET BODY
JAWSAT SSO 2025-03-01 09:03:45 0.001101456 114.0 (m) PAYLOAD
CZ-6A DEB SSO 2024-09-25 15:30:36 0.0002207005 964.0 (m) DEBRIS
CZ-6A DEB SSO 2024-06-20 07:15:06 0.0003587297 53.0 (m) DEBRIS

Associated space launch

Chinese polar orbiting meteorological satellite

FENGYUN 1C DEB was lifted into orbit during the mission ‘Long March 4B | Feng Yun 1C’, on board a Long March 4B space rocket.

The launch took place on May 10, 1999, 1:33 a.m. from Launch Complex 7.

For more information about the launch, click the button.

Launch to space Long March 4B | Feng Yun 1C
Long March 4B | Feng Yun 1C

Agency: N/A

Status: Launch Successful

Launch date: May 10, 1999, 1:33 a.m. UTC

Rocket: Long March 4B

Launch pad: Launch Complex 7

Location: Taiyuan Satellite Launch Center, People's Republic of China

...

Latest news about this satellite

There are no fresh news available about this satellite. Check back as we update our databases every day.


Newsletter sign-up

Weekly statistics, charts and insights to help you stay on top of the space industry.